"FRM_AIS_EDR_2397.DAT           ",2005-11-24T21:12:19.32 ,"1/0080946734.28564",    0,    0,  274862,"AIS","B1","B1","B1","B1","PISd",0,0,0,0,"B1", 0,15,   0, 0,    0,"AIS","N/A    ","OK ","OK ",    001160.825,    -054.467,    -130.131,    0023.154,    0111.960
"FRM_AIS_EDR_2397.DAT           ",2005-11-24T21:12:26.86 ,"1/0080946741.64163",    0,    1,  274862,"AIS","B1","B1","B1","B1","PISd",0,0,0,0,"B1", 0,15,   0, 0,    0,"AIS","N/A    ","OK ","OK ",    001150.455,    -054.794,    -130.104,    0023.157,    0111.650
"FRM_AIS_EDR_2397.DAT           ",2005-11-24T21:12:34.41 ,"1/0080946749.34226",    0,    2,  274862,"AIS","B1","B1","B1","B1","PISd",0,0,0,0,"B1", 0,15,   0, 0,    0,"AIS","N/A    ","OK ","OK ",    001140.116,    -055.123,    -130.076,    0023.161,    0111.339
"FRM_AIS_EDR_2397.DAT           ",2005-11-24T21:12:41.95 ,"1/0080946757.04290",    0,    3,  274862,"AIS","B1","B1","B1","B1","PISd",0,0,0,0,"B1", 0,15,   0, 0,    0,"AIS","N/A    ","OK ","OK ",    001129.810,    -055.453,    -130.046,    0023.165,    0111.026
"FRM_AIS_EDR_2397.DAT           ",2005-11-24T21:12:49.49 ,"1/0080946764.39889",    0,    4,  274862,"AIS","B1","B1","B1","B1","PISd",0,0,0,0,"B1", 0,15,   0, 0,    0,"AIS","N/A    ","OK ","OK ",    001119.537,    -055.785,    -130.015,    0023.169,    0110.712
"FRM_AIS_EDR_2397.DAT           ",2005-11-24T21:12:57.04 ,"1/0080946772.09953",    0,    5,  274862,"AIS","B1","B1","B1","B1","PISd",0,0,0,0,"B1", 0,15,   0, 0,    0,"AIS","N/A    ","OK ","OK ",    001109.297,    -056.119,    -129.983,    0023.174,    0110.397
"FRM_AIS_EDR_2397.DAT           ",2005-11-24T21:13:04.58 ,"1/0080946779.45552",    0,    6,  274862,"AIS","B1","B1","B1","B1","PISd",0,0,0,0,"B1", 0,15,   0, 0,    0,"AIS","N/A    ","OK ","OK ",    001099.092,    -056.454,    -129.949,    0023.178,    0110.079
"FRM_AIS_EDR_2397.DAT           ",2005-11-24T21:13:12.12 ,"1/0080946787.15616",    0,    7,  274862,"AIS","B1","B1","B1","B1","PISd",0,0,0,0,"B1", 0,15,   0, 0,    0,"AIS","N/A    ","OK ","OK ",    001088.920,    -056.790,    -129.914,    0023.182,    0109.761
"FRM_AIS_EDR_2397.DAT           ",2005-11-24T21:13:19.67 ,"1/0080946794.51215",    0,    8,  274862,"AIS","B1","B1","B1","B1","PISd",0,0,0,0,"B1", 0,15,   0, 0,    0,"AIS","N/A    ","OK ","OK ",    001078.784,    -057.128,    -129.878,    0023.187,    0109.441
"FRM_AIS_EDR_2397.DAT           ",2005-11-24T21:13:27.21 ,"1/0080946802.21278",    0,    9,  274862,"AIS","B1","B1","B1","B1","PISd",0,0,0,0,"B1", 0,15,   0, 0,    0,"AIS","N/A    ","OK ","OK ",    001068.683,    -057.468,    -129.840,    0023.191,    0109.119
"FRM_AIS_EDR_2397.DAT           ",2005-11-24T21:13:34.75 ,"1/0080946809.56878",    0,   10,  274862,"AIS","B1","B1","B1","B1","PISd",0,0,0,0,"B1", 0,15,   0, 0,    0,"AIS","N/A    ","OK ","OK ",    001058.617,    -057.809,    -129.800,    0023.196,    0108.796
"FRM_AIS_EDR_2397.DAT           ",2005-11-24T21:13:42.30 ,"1/0080946817.26941",    0,   11,  274862,"AIS","B1","B1","B1","B1","PISd",0,0,0,0,"B1", 0,15,   0, 0,    0,"AIS","N/A    ","OK ","OK ",    001048.589,    -058.151,    -129.758,    0023.201,    0108.471
"FRM_AIS_EDR_2397.DAT           ",2005-11-24T21:13:49.84 ,"1/0080946824.62541",    0,   12,  274862,"AIS","B1","B1","B1","B1","PISd",0,0,0,0,"B1", 0,15,   0, 0,    0,"AIS","N/A    ","OK ","OK ",    001038.597,    -058.495,    -129.715,    0023.206,    0108.145
"FRM_AIS_EDR_2397.DAT           ",2005-11-24T21:13:57.38 ,"1/0080946832.32604",    0,   13,  274862,"AIS","B1","B1","B1","B1","PISd",0,0,0,0,"B1", 0,15,   0, 0,    0,"AIS","N/A    ","OK ","OK ",    001028.642,    -058.841,    -129.670,    0023.211,    0107.818
"FRM_AIS_EDR_2397.DAT           ",2005-11-24T21:14:04.93 ,"1/0080946840.02667",    0,   14,  274862,"AIS","B1","B1","B1","B1","PISd",0,0,0,0,"B1", 0,15,   0, 0,    0,"AIS","N/A    ","OK ","OK ",    001018.726,    -059.188,    -129.623,    0023.216,    0107.488
"FRM_AIS_EDR_2397.DAT           ",2005-11-24T21:14:12.47 ,"1/0080946847.38267",    0,   15,  274862,"AIS","B1","B1","B1","B1","PISd",0,0,0,0,"B1", 0,15,   0, 0,    0,"AIS","N/A    ","OK ","OK ",    001008.848,    -059.536,    -129.575,    0023.221,    0107.158
"FRM_AIS_EDR_2397.DAT           ",2005-11-24T21:14:20.01 ,"1/0080946855.08330",    0,   16,  274862,"AIS","B1","B1","B1","B1","PISd",0,0,0,0,"B1", 0,15,   0, 0,    0,"AIS","N/A    ","OK ","OK ",    000999.009,    -059.886,    -129.524,    0023.227,    0106.825
"FRM_AIS_EDR_2397.DAT           ",2005-11-24T21:14:27.55 ,"1/0080946862.43930",    0,   17,  274862,"AIS","B1","B1","B1","B1","PISd",0,0,0,0,"B1", 0,15,   0, 0,    0,"AIS","N/A    ","OK ","OK ",    000989.210,    -060.238,    -129.471,    0023.232,    0106.492
"FRM_AIS_EDR_2397.DAT           ",2005-11-24T21:14:35.10 ,"1/0080946870.13993",    0,   18,  274862,"AIS","B1","B1","B1","B1","PISd",0,0,0,0,"B1", 0,15,   0, 0,    0,"AIS","N/A    ","OK ","OK ",    000979.451,    -060.591,    -129.415,    0023.238,    0106.156
"FRM_AIS_EDR_2397.DAT           ",2005-11-24T21:14:42.64 ,"1/0080946877.49592",    0,   19,  274862,"AIS","B1","B1","B1","B1","PISd",0,0,0,0,"B1", 0,15,   0, 0,    0,"AIS","N/A    ","OK ","OK ",    000969.733,    -060.946,    -129.358,    0023.244,    0105.820
"FRM_AIS_EDR_2397.DAT           ",2005-11-24T21:14:50.18 ,"1/0080946885.19656",    0,   20,  274862,"AIS","B1","B1","B1","B1","PISd",0,0,0,0,"B1", 0,15,   0, 0,    0,"AIS","N/A    ","OK ","OK ",    000960.055,    -061.302,    -129.298,    0023.250,    0105.481
"FRM_AIS_EDR_2397.DAT           ",2005-11-24T21:14:57.73 ,"1/0080946892.55255",    0,   21,  274862,"AIS","B1","B1","B1","B1","PISd",0,0,0,0,"B1", 0,15,   0, 0,    0,"AIS","N/A    ","OK ","OK ",    000950.420,    -061.660,    -129.236,    0023.256,    0105.141
"FRM_AIS_EDR_2397.DAT           ",2005-11-24T21:15:05.27 ,"1/0080946900.25318",    0,   22,  274862,"AIS","B1","B1","B1","B1","PISd",0,0,0,0,"B1", 0,15,   0, 0,    0,"AIS","N/A    ","OK ","OK ",    000940.827,    -062.020,    -129.171,    0023.262,    0104.800
"FRM_AIS_EDR_2397.DAT           ",2005-11-24T21:15:12.81 ,"1/0080946907.60918",    0,   23,  274862,"AIS","B1","B1","B1","B1","PISd",0,0,0,0,"B1", 0,15,   0, 0,    0,"AIS","N/A    ","OK ","OK ",    000931.276,    -062.381,    -129.103,    0023.269,    0104.457
"FRM_AIS_EDR_2397.DAT           ",2005-11-24T21:15:20.36 ,"1/0080946915.30981",    0,   24,  274862,"AIS","B1","B1","B1","B1","PISd",0,0,0,0,"B1", 0,15,   0, 0,    0,"AIS","N/A    ","OK ","OK ",    000921.769,    -062.743,    -129.032,    0023.276,    0104.112
"FRM_AIS_EDR_2397.DAT           ",2005-11-24T21:15:27.90 ,"1/0080946923.01045",    0,   25,  274862,"AIS","B1","B1","B1","B1","PISd",0,0,0,0,"B1", 0,15,   0, 0,    0,"AIS","N/A    ","OK ","OK ",    000912.306,    -063.107,    -128.959,    0023.283,    0103.766
"FRM_AIS_EDR_2397.DAT           ",2005-11-24T21:15:35.44 ,"1/0080946930.36644",    0,   26,  274862,"AIS","B1","B1","B1","B1","PISd",0,0,0,0,"B1", 0,15,   0, 0,    0,"AIS","N/A    ","OK ","OK ",    000902.888,    -063.473,    -128.882,    0023.290,    0103.419
"FRM_AIS_EDR_2397.DAT           ",2005-11-24T21:15:42.99 ,"1/0080946938.06707",    0,   27,  274862,"AIS","B1","B1","B1","B1","PISd",0,0,0,0,"B1", 0,15,   0, 0,    0,"AIS","N/A    ","OK ","OK ",    000893.515,    -063.840,    -128.802,    0023.297,    0103.069
"FRM_AIS_EDR_2397.DAT           ",2005-11-24T21:15:50.53 ,"1/0080946945.42307",    0,   28,  274862,"AIS","B1","B1","B1","B1","PISd",0,0,0,0,"B1", 0,15,   0, 0,    0,"AIS","N/A    ","OK ","OK ",    000884.187,    -064.208,    -128.719,    0023.305,    0102.719
"FRM_AIS_EDR_2397.DAT           ",2005-11-24T21:15:58.07 ,"1/0080946953.12370",    0,   29,  274862,"AIS","B1","B1","B1","B1","PISd",0,0,0,0,"B1", 0,15,   0, 0,    0,"AIS","N/A    ","OK ","OK ",    000874.906,    -064.579,    -128.632,    0023.313,    0102.366
"FRM_AIS_EDR_2397.DAT           ",2005-11-24T21:16:05.62 ,"1/0080946960.47970",    0,   30,  274862,"AIS","B1","B1","B1","B1","PISd",0,0,0,0,"B1", 0,15,   0, 0,    0,"AIS","N/A    ","OK ","OK ",    000865.671,    -064.950,    -128.541,    0023.321,    0102.012
"FRM_AIS_EDR_2397.DAT           ",2005-11-24T21:16:13.16 ,"1/0080946968.18033",    0,   31,  274862,"AIS","B1","B1","B1","B1","PISd",0,0,0,0,"B1", 0,15,   0, 0,    0,"AIS","N/A    ","OK ","OK ",    000856.484,    -065.323,    -128.446,    0023.329,    0101.657
"FRM_AIS_EDR_2397.DAT           ",2005-11-24T21:16:20.70 ,"1/0080946975.53632",    0,   32,  274862,"AIS","B1","B1","B1","B1","PISd",0,0,0,0,"B1", 0,15,   0, 0,    0,"AIS","N/A    ","OK ","OK ",    000847.345,    -065.698,    -128.347,    0023.338,    0101.300
"FRM_AIS_EDR_2397.DAT           ",2005-11-24T21:16:28.25 ,"1/0080946983.23696",    0,   33,  274862,"AIS","B1","B1","B1","B1","PISd",0,0,0,0,"B1", 0,15,   0, 0,    0,"AIS","N/A    ","OK ","OK ",    000838.255,    -066.074,    -128.244,    0023.347,    0100.941
"FRM_AIS_EDR_2397.DAT           ",2005-11-24T21:16:35.79 ,"1/0080946990.59295",    0,   34,  274862,"AIS","B1","B1","B1","B1","PISd",0,0,0,0,"B1", 0,15,   0, 0,    0,"AIS","N/A    ","OK ","OK ",    000829.213,    -066.452,    -128.136,    0023.356,    0100.581
"FRM_AIS_EDR_2397.DAT           ",2005-11-24T21:16:43.33 ,"1/0080946998.29359",    0,   35,  274862,"AIS","B1","B1","B1","B1","PISd",0,0,0,0,"B1", 0,15,   0, 0,    0,"AIS","N/A    ","OK ","OK ",    000820.222,    -066.832,    -128.023,    0023.366,    0100.219
"FRM_AIS_EDR_2397.DAT           ",2005-11-24T21:16:50.88 ,"1/0080947005.64958",    0,   36,  274862,"AIS","B1","B1","B1","B1","PISd",0,0,0,0,"B1", 0,15,   0, 0,    0,"AIS","N/A    ","OK ","OK ",    000811.281,    -067.212,    -127.905,    0023.376,    0099.856
"FRM_AIS_EDR_2397.DAT           ",2005-11-24T21:16:58.42 ,"1/0080947013.35021",    0,   37,  274862,"AIS","B1","B1","B1","B1","PISd",0,0,0,0,"B1", 0,15,   0, 0,    0,"AIS","N/A    ","OK ","OK ",    000802.391,    -067.595,    -127.782,    0023.386,    0099.491
"FRM_AIS_EDR_2397.DAT           ",2005-11-24T21:17:05.96 ,"1/0080947021.05085",    0,   38,  274862,"AIS","B1","B1","B1","B1","PISd",0,0,0,0,"B1", 0,15,   0, 0,    0,"AIS","N/A    ","OK ","OK ",    000793.552,    -067.978,    -127.652,    0023.396,    0099.125
"FRM_AIS_EDR_2397.DAT           ",2005-11-24T21:17:13.51 ,"1/0080947028.40684",    0,   39,  274862,"AIS","B1","B1","B1","B1","PISd",0,0,0,0,"B1", 0,15,   0, 0,    0,"AIS","N/A    ","OK ","OK ",    000784.766,    -068.364,    -127.517,    0023.407,    0098.757
"FRM_AIS_EDR_2397.DAT           ",2005-11-24T21:17:21.05 ,"1/0080947036.10747",    0,   40,  274862,"AIS","B1","B1","B1","B1","PISd",0,0,0,0,"B1", 0,15,   0, 0,    0,"AIS","N/A    ","OK ","OK ",    000776.032,    -068.750,    -127.375,    0023.419,    0098.387
"FRM_AIS_EDR_2397.DAT           ",2005-11-24T21:17:28.59 ,"1/0080947043.46347",    0,   41,  274862,"AIS","B1","B1","B1","B1","PISd",0,0,0,0,"B1", 0,15,   0, 0,    0,"AIS","N/A    ","OK ","OK ",    000767.352,    -069.139,    -127.226,    0023.431,    0098.016
"FRM_AIS_EDR_2397.DAT           ",2005-11-24T21:17:36.13 ,"1/0080947051.16410",    0,   42,  274862,"AIS","B1","B1","B1","B1","PISd",0,0,0,0,"B1", 0,15,   0, 0,    0,"AIS","N/A    ","OK ","OK ",    000758.726,    -069.528,    -127.071,    0023.443,    0097.644
"FRM_AIS_EDR_2397.DAT           ",2005-11-24T21:17:43.68 ,"1/0080947058.52010",    0,   43,  274862,"AIS","B1","B1","B1","B1","PISd",0,0,0,0,"B1", 0,15,   0, 0,    0,"AIS","N/A    ","OK ","OK ",    000750.154,    -069.919,    -126.907,    0023.456,    0097.269
"FRM_AIS_EDR_2397.DAT           ",2005-11-24T21:17:51.22 ,"1/0080947066.22073",    0,   44,  274862,"AIS","B1","B1","B1","B1","PISd",0,0,0,0,"B1", 0,15,   0, 0,    0,"AIS","N/A    ","OK ","OK ",    000741.638,    -070.312,    -126.735,    0023.470,    0096.894
"FRM_AIS_EDR_2397.DAT           ",2005-11-24T21:17:58.76 ,"1/0080947073.57672",    0,   45,  274862,"AIS","B1","B1","B1","B1","PISd",0,0,0,0,"B1", 0,15,   0, 0,    0,"AIS","N/A    ","OK ","OK ",    000733.178,    -070.706,    -126.554,    0023.484,    0096.516
"FRM_AIS_EDR_2397.DAT           ",2005-11-24T21:18:06.31 ,"1/0080947081.27736",    0,   46,  274862,"AIS","B1","B1","B1","B1","PISd",0,0,0,0,"B1", 0,15,   0, 0,    0,"AIS","N/A    ","OK ","OK ",    000724.774,    -071.101,    -126.364,    0023.499,    0096.137
"FRM_AIS_EDR_2397.DAT           ",2005-11-24T21:18:13.85 ,"1/0080947088.63335",    0,   47,  274862,"AIS","B1","B1","B1","B1","PISd",0,0,0,0,"B1", 0,15,   0, 0,    0,"AIS","N/A    ","OK ","OK ",    000716.427,    -071.497,    -126.164,    0023.514,    0095.757
"FRM_AIS_EDR_2397.DAT           ",2005-11-24T21:18:21.39 ,"1/0080947096.33398",    0,   48,  274862,"AIS","B1","B1","B1","B1","PISd",0,0,0,0,"B1", 0,15,   0, 0,    0,"AIS","N/A    ","OK ","OK ",    000708.138,    -071.895,    -125.953,    0023.530,    0095.375
"FRM_AIS_EDR_2397.DAT           ",2005-11-24T21:18:28.94 ,"1/0080947104.03462",    0,   49,  274862,"AIS","B1","B1","B1","B1","PISd",0,0,0,0,"B1", 0,15,   0, 0,    0,"AIS","N/A    ","OK ","OK ",    000699.908,    -072.295,    -125.730,    0023.547,    0094.991
"FRM_AIS_EDR_2397.DAT           ",2005-11-24T21:18:36.48 ,"1/0080947111.39061",    0,   50,  274862,"AIS","B1","B1","B1","B1","PISd",0,0,0,0,"B1", 0,15,   0, 0,    0,"AIS","N/A    ","OK ","OK ",    000691.736,    -072.695,    -125.495,    0023.565,    0094.606
"FRM_AIS_EDR_2397.DAT           ",2005-11-24T21:18:44.02 ,"1/0080947119.09125",    0,   51,  274862,"AIS","B1","B1","B1","B1","PISd",0,0,0,0,"B1", 0,15,   0, 0,    0,"AIS","N/A    ","OK ","OK ",    000683.624,    -073.097,    -125.247,    0023.583,    0094.220
"FRM_AIS_EDR_2397.DAT           ",2005-11-24T21:18:51.57 ,"1/0080947126.44724",    0,   52,  274862,"AIS","B1","B1","B1","B1","PISd",0,0,0,0,"B1", 0,15,   0, 0,    0,"AIS","N/A    ","OK ","OK ",    000675.573,    -073.500,    -124.984,    0023.603,    0093.831
"FRM_AIS_EDR_2397.DAT           ",2005-11-24T21:18:59.11 ,"1/0080947134.14787",    0,   53,  274862,"AIS","B1","B1","B1","B1","PISd",0,0,0,0,"B1", 0,15,   0, 0,    0,"AIS","N/A    ","OK ","OK ",    000667.582,    -073.904,    -124.706,    0023.623,    0093.442
"FRM_AIS_EDR_2397.DAT           ",2005-11-24T21:19:06.65 ,"1/0080947141.50387",    0,   54,  274862,"AIS","B1","B1","B1","B1","PISd",0,0,0,0,"B1", 0,15,   0, 0,    0,"AIS","N/A    ","OK ","OK ",    000659.653,    -074.309,    -124.411,    0023.645,    0093.051
"FRM_AIS_EDR_2397.DAT           ",2005-11-24T21:19:14.20 ,"1/0080947149.20450",    0,   55,  274862,"AIS","B1","B1","B1","B1","PISd",0,0,0,0,"B1", 0,15,   0, 0,    0,"AIS","N/A    ","OK ","OK ",    000651.786,    -074.716,    -124.098,    0023.668,    0092.658
"FRM_AIS_EDR_2397.DAT           ",2005-11-24T21:19:21.74 ,"1/0080947156.56049",    0,   56,  274862,"AIS","B1","B1","B1","B1","PISd",0,0,0,0,"B1", 0,15,   0, 0,    0,"AIS","N/A    ","OK ","OK ",    000643.982,    -075.123,    -123.765,    0023.692,    0092.263
"FRM_AIS_EDR_2397.DAT           ",2005-11-24T21:19:29.28 ,"1/0080947164.26113",    0,   57,  274862,"AIS","B1","B1","B1","B1","PISd",0,0,0,0,"B1", 0,15,   0, 0,    0,"AIS","N/A    ","OK ","OK ",    000636.241,    -075.532,    -123.411,    0023.718,    0091.868
"FRM_AIS_EDR_2397.DAT           ",2005-11-24T21:19:36.83 ,"1/0080947171.61712",    0,   58,  274862,"AIS","B1","B1","B1","B1","PISd",0,0,0,0,"B1", 0,15,   0, 0,    0,"AIS","N/A    ","OK ","OK ",    000628.564,    -075.941,    -123.033,    0023.745,    0091.470
"FRM_AIS_EDR_2397.DAT           ",2005-11-24T21:19:44.37 ,"1/0080947179.31775",    0,   59,  274862,"AIS","B1","B1","B1","B1","PISd",0,0,0,0,"B1", 0,15,   0, 0,    0,"AIS","N/A    ","OK ","OK ",    000620.952,    -076.351,    -122.630,    0023.774,    0091.072
"FRM_AIS_EDR_2397.DAT           ",2005-11-24T21:19:51.91 ,"1/0080947187.01839",    0,   60,  274862,"AIS","B1","B1","B1","B1","PISd",0,0,0,0,"B1", 0,15,   0, 0,    0,"AIS","N/A    ","OK ","OK ",    000613.406,    -076.762,    -122.198,    0023.805,    0090.671
"FRM_AIS_EDR_2397.DAT           ",2005-11-24T21:19:59.46 ,"1/0080947194.37438",    0,   61,  274862,"AIS","B1","B1","B1","B1","PISd",0,0,0,0,"B1", 0,15,   0, 0,    0,"AIS","N/A    ","OK ","OK ",    000605.925,    -077.174,    -121.735,    0023.838,    0090.269
"FRM_AIS_EDR_2397.DAT           ",2005-11-24T21:20:07.00 ,"1/0080947202.07502",    0,   62,  274862,"AIS","B1","B1","B1","B1","PISd",0,0,0,0,"B1", 0,15,   0, 0,    0,"AIS","N/A    ","OK ","OK ",    000598.511,    -077.586,    -121.238,    0023.873,    0089.866
"FRM_AIS_EDR_2397.DAT           ",2005-11-24T21:20:14.54 ,"1/0080947209.43101",    0,   63,  274862,"AIS","B1","B1","B1","B1","PISd",0,0,0,0,"B1", 0,15,   0, 0,    0,"AIS","N/A    ","OK ","OK ",    000591.165,    -077.999,    -120.703,    0023.911,    0089.461
"FRM_AIS_EDR_2397.DAT           ",2005-11-24T21:20:22.09 ,"1/0080947217.13164",    0,   64,  274862,"AIS","B1","B1","B1","B1","PISd",0,0,0,0,"B1", 0,15,   0, 0,    0,"AIS","N/A    ","OK ","OK ",    000583.886,    -078.412,    -120.127,    0023.951,    0089.055
"FRM_AIS_EDR_2397.DAT           ",2005-11-24T21:20:29.63 ,"1/0080947224.48764",    0,   65,  274862,"AIS","B1","B1","B1","B1","PISd",0,0,0,0,"B1", 0,15,   0, 0,    0,"AIS","N/A    ","OK ","OK ",    000576.676,    -078.825,    -119.504,    0023.995,    0088.647
"FRM_AIS_EDR_2397.DAT           ",2005-11-24T21:20:37.17 ,"1/0080947232.18827",    0,   66,  274862,"AIS","B1","B1","B1","B1","PISd",0,0,0,0,"B1", 0,15,   0, 0,    0,"AIS","N/A    ","OK ","OK ",    000569.536,    -079.238,    -118.828,    0000.042,    0088.238
"FRM_AIS_EDR_2397.DAT           ",2005-11-24T21:20:44.72 ,"1/0080947239.54426",    0,   67,  274862,"AIS","B1","B1","B1","B1","PISd",0,0,0,0,"B1", 0,15,   0, 0,    0,"AIS","N/A    ","OK ","OK ",    000562.465,    -079.651,    -118.094,    0000.093,    0087.828
"FRM_AIS_EDR_2397.DAT           ",2005-11-24T21:20:52.26 ,"1/0080947247.24490",    0,   68,  274862,"AIS","B1","B1","B1","B1","PISd",0,0,0,0,"B1", 0,15,   0, 0,    0,"AIS","N/A    ","OK ","OK ",    000555.464,    -080.063,    -117.295,    0000.148,    0087.415
"FRM_AIS_EDR_2397.DAT           ",2005-11-24T21:20:59.80 ,"1/0080947254.60089",    0,   69,  274862,"AIS","B1","B1","B1","B1","PISd",0,0,0,0,"B1", 0,15,   0, 0,    0,"AIS","N/A    ","OK ","OK ",    000548.535,    -080.475,    -116.421,    0000.208,    0087.002
"FRM_AIS_EDR_2397.DAT           ",2005-11-24T21:21:07.34 ,"1/0080947262.30152",    0,   70,  274862,"AIS","B1","B1","B1","B1","PISd",0,0,0,0,"B1", 0,15,   0, 0,    0,"AIS","N/A    ","OK ","OK ",    000541.678,    -080.885,    -115.463,    0000.274,    0086.587
"FRM_AIS_EDR_2397.DAT           ",2005-11-24T21:21:14.89 ,"1/0080947270.00216",    0,   71,  274862,"AIS","B1","B1","B1","B1","PISd",0,0,0,0,"B1", 0,15,   0, 0,    0,"AIS","N/A    ","OK ","OK ",    000534.893,    -081.294,    -114.409,    0000.347,    0086.171
"FRM_AIS_EDR_2397.DAT           ",2005-11-24T21:21:22.43 ,"1/0080947277.35815",    0,   72,  274862,"AIS","B1","B1","B1","B1","PISd",0,0,0,0,"B1", 0,15,   0, 0,    0,"AIS","N/A    ","OK ","OK ",    000528.181,    -081.701,    -113.244,    0000.426,    0085.753
"FRM_AIS_EDR_2397.DAT           ",2005-11-24T21:21:29.97 ,"1/0080947285.05879",    0,   73,  274862,"AIS","B1","B1","B1","B1","PISd",0,0,0,0,"B1", 0,15,   0, 0,    0,"AIS","N/A    ","OK ","OK ",    000521.543,    -082.106,    -111.954,    0000.514,    0085.334
"FRM_AIS_EDR_2397.DAT           ",2005-11-24T21:21:37.52 ,"1/0080947292.41478",    0,   74,  274862,"AIS","B1","B1","B1","B1","PISd",0,0,0,0,"B1", 0,15,   0, 0,    0,"AIS","N/A    ","OK ","OK ",    000514.979,    -082.507,    -110.517,    0000.612,    0084.913
"FRM_AIS_EDR_2397.DAT           ",2005-11-24T21:21:45.06 ,"1/0080947300.11541",    0,   75,  274862,"AIS","B1","B1","B1","B1","PISd",0,0,0,0,"B1", 0,15,   0, 0,    0,"AIS","N/A    ","OK ","OK ",    000508.490,    -082.904,    -108.910,    0000.721,    0084.491
"FRM_AIS_EDR_2397.DAT           ",2005-11-24T21:21:52.60 ,"1/0080947307.47141",    0,   76,  274862,"AIS","B1","B1","B1","B1","PISd",0,0,0,0,"B1", 0,15,   0, 0,    0,"AIS","N/A    ","OK ","OK ",    000502.076,    -083.297,    -107.106,    0000.844,    0084.068
"FRM_AIS_EDR_2397.DAT           ",2005-11-24T21:22:00.15 ,"1/0080947315.17204",    0,   77,  274862,"AIS","B1","B1","B1","B1","PISd",0,0,0,0,"B1", 0,15,   0, 0,    0,"AIS","N/A    ","OK ","OK ",    000495.739,    -083.682,    -105.070,    0000.981,    0083.643
"FRM_AIS_EDR_2397.DAT           ",2005-11-24T21:22:07.69 ,"1/0080947322.52803",    0,   78,  274862,"AIS","B1","B1","B1","B1","PISd",0,0,0,0,"B1", 0,15,   0, 0,    0,"AIS","N/A    ","OK ","OK ",    000489.479,    -084.060,    -102.761,    0001.137,    0083.217
"FRM_AIS_EDR_2397.DAT           ",2005-11-24T21:22:15.23 ,"1/0080947330.22867",    0,   79,  274862,"AIS","B1","B1","B1","B1","PISd",0,0,0,0,"B1", 0,15,   0, 0,    0,"AIS","N/A    ","OK ","OK ",    000483.296,    -084.428,    -100.132,    0001.315,    0082.790
"FRM_AIS_EDR_2397.DAT           ",2005-11-24T21:22:22.78 ,"1/0080947337.58466",    0,   80,  274862,"AIS","B1","B1","B1","B1","PISd",0,0,0,0,"B1", 0,15,   0, 0,    0,"AIS","N/A    ","OK ","OK ",    000477.191,    -084.783,    -097.125,    0001.517,    0082.362
"FRM_AIS_EDR_2397.DAT           ",2005-11-24T21:22:30.32 ,"1/0080947345.28529",    0,   81,  274862,"AIS","B1","B1","B1","B1","PISd",0,0,0,0,"B1", 0,15,   0, 0,    0,"AIS","N/A    ","OK ","OK ",    000471.165,    -085.123,    -093.676,    0001.749,    0081.932
"FRM_AIS_EDR_2397.DAT           ",2005-11-24T21:22:37.86 ,"1/0080947352.64129",    0,   82,  274862,"AIS","B1","B1","B1","B1","PISd",0,0,0,0,"B1", 0,15,   0, 0,    0,"AIS","N/A    ","OK ","OK ",    000465.218,    -085.443,    -089.711,    0002.016,    0081.500
"FRM_AIS_EDR_2397.DAT           ",2005-11-24T21:22:45.41 ,"1/0080947360.34192",    0,   83,  274862,"AIS","B1","B1","B1","B1","PISd",0,0,0,0,"B1", 0,15,   0, 0,    0,"AIS","N/A    ","OK ","OK ",    000459.352,    -085.738,    -085.155,    0002.321,    0081.068
"FRM_AIS_EDR_2397.DAT           ",2005-11-24T21:22:52.95 ,"1/0080947368.04255",    0,   84,  274862,"AIS","B1","B1","B1","B1","PISd",0,0,0,0,"B1", 0,15,   0, 0,    0,"AIS","N/A    ","OK ","OK ",    000453.565,    -086.004,    -079.938,    0002.671,    0080.634
"FRM_AIS_EDR_2397.DAT           ",2005-11-24T21:23:00.49 ,"1/0080947375.39855",    0,   85,  274862,"AIS","B1","B1","B1","B1","PISd",0,0,0,0,"B1", 0,15,   0, 0,    0,"AIS","N/A    ","OK ","OK ",    000447.860,    -086.231,    -074.016,    0003.068,    0080.199
"FRM_AIS_EDR_2397.DAT           ",2005-11-24T21:23:08.04 ,"1/0080947383.09918",    0,   86,  274862,"AIS","B1","B1","B1","B1","PISd",0,0,0,0,"B1", 0,15,   0, 0,    0,"AIS","N/A    ","OK ","OK ",    000442.237,    -086.414,    -067.390,    0003.512,    0079.763
"FRM_AIS_EDR_2397.DAT           ",2005-11-24T21:23:15.58 ,"1/0080947390.45518",    0,   87,  274862,"AIS","B1","B1","B1","B1","PISd",0,0,0,0,"B1", 0,15,   0, 0,    0,"AIS","N/A    ","OK ","OK ",    000436.695,    -086.545,    -060.137,    0003.997,    0079.326
"FRM_AIS_EDR_2397.DAT           ",2005-11-24T21:23:23.12 ,"1/0080947398.15581",    0,   88,  274862,"AIS","B1","B1","B1","B1","PISd",0,0,0,0,"B1", 0,15,   0, 0,    0,"AIS","N/A    ","OK ","OK ",    000431.237,    -086.616,    -052.427,    0004.513,    0078.887
"FRM_AIS_EDR_2397.DAT           ",2005-11-24T21:23:30.67 ,"1/0080947405.51180",    0,   89,  274862,"AIS","B1","B1","B1","B1","PISd",0,0,0,0,"B1", 0,15,   0, 0,    0,"AIS","N/A    ","OK ","OK ",    000425.863,    -086.623,    -044.513,    0005.043,    0078.447
"FRM_AIS_EDR_2397.DAT           ",2005-11-24T21:23:38.21 ,"1/0080947413.21244",    0,   90,  274862,"AIS","B1","B1","B1","B1","PISd",0,0,0,0,"B1", 0,15,   0, 0,    0,"AIS","N/A    ","OK ","OK ",    000420.572,    -086.566,    -036.694,    0005.566,    0078.006